Location: Croisilles
(50.1998°N, 2.8793°E)
Time: 21:09:47
(UTC+00:00)

USA 234 - Pass Details

Date: 21 January 2021
Orbit: 1100 x 1107 km, 123.0° (Epoch: 27 February)

Event Time Altitude Azimuth Distance (km) Brightness Sun altitude
Exits shadow 17:55:44 20° 75° (ENE) 2,330 4.3 -14.4°
Maximum altitude 18:00:13 51° 8° (N) 1,360 3.6 -15.1°
Drops below altitude 10° 18:06:31 10° 295° (WNW) 2,968 6.3 -16.1°
Sets 18:09:03 0° 290° (WNW) 3,928 7.2 -16.5°
